Time,TemperatureF,DewpointF,PressureIn,WindDirection,WindDirectionDegrees,WindSpeedMPH,WindSpeedGustMPH,Humidity,HourlyPrecipIn,Conditions,Clouds,dailyrainin,SoftwareType,DateUTC
2013-11-20 00:12:00,31.0,27.0,30.26,ESE,117,3.0,6.0,85,0.00,,,0.00,,2013-11-20 06:12:00,
2013-11-20 00:21:00,30.0,26.0,30.26,ESE,106,3.0,7.0,85,0.00,,,0.00,,2013-11-20 06:21:00,
2013-11-20 00:42:00,30.0,26.0,30.26,SE,128,3.0,6.0,86,0.00,,,0.00,,2013-11-20 06:42:00,
2013-11-20 00:52:00,30.0,26.0,30.26,SE,135,4.0,8.0,85,0.00,,,0.00,,2013-11-20 06:52:00,
2013-11-20 01:11:00,31.0,27.0,30.26,SE,129,5.0,9.0,85,0.00,,,0.00,,2013-11-20 07:11:00,
2013-11-20 01:21:00,31.0,27.0,30.26,SE,130,3.0,7.0,85,0.00,,,0.00,,2013-11-20 07:21:00,
2013-11-20 01:42:00,30.0,26.0,30.27,SE,142,1.0,4.0,85,0.00,,,0.00,,2013-11-20 07:42:00,
2013-11-20 01:52:00,30.0,26.0,30.26,SE,141,2.0,4.0,85,0.00,,,0.00,,2013-11-20 07:52:00,
2013-11-20 02:21:00,30.0,26.0,30.27,SSE,155,1.0,4.0,85,0.00,,,0.00,,2013-11-20 08:21:00,
2013-11-20 02:42:00,30.0,26.0,30.27,South,175,0.0,3.0,85,0.00,,,0.00,,2013-11-20 08:42:00,
2013-11-20 02:52:00,30.0,26.0,30.27,SSE,153,1.0,5.0,85,0.00,,,0.00,,2013-11-20 08:52:00,
2013-11-20 03:12:00,29.0,25.0,30.27,SSE,147,2.0,6.0,85,0.00,,,0.00,,2013-11-20 09:12:00,
2013-11-20 03:21:00,30.0,26.0,30.27,SSE,162,2.0,7.0,85,0.00,,,0.00,,2013-11-20 09:21:00,
2013-11-20 03:43:00,30.0,26.0,30.26,SE,128,3.0,8.0,84,0.00,,,0.00,,2013-11-20 09:43:00,
2013-11-20 03:54:00,30.0,26.0,30.26,SE,140,2.0,7.0,84,0.00,,,0.00,,2013-11-20 09:54:00,
2013-11-20 04:12:00,29.0,25.0,30.26,SSE,155,1.0,3.0,85,0.00,,,0.00,,2013-11-20 10:12:00,
2013-11-20 04:23:00,29.0,26.0,30.26,SE,142,4.0,7.0,87,0.00,,,0.00,,2013-11-20 10:23:00,
2013-11-20 04:43:00,29.0,26.0,30.25,SE,135,4.0,7.0,87,0.00,,,0.00,,2013-11-20 10:43:00,
2013-11-20 04:53:00,29.0,25.0,30.25,SSE,154,1.0,5.0,86,0.00,,,0.00,,2013-11-20 10:53:00,
2013-11-20 05:12:00,29.0,26.0,30.25,SE,132,4.0,8.0,87,0.00,,,0.00,,2013-11-20 11:12:00,
2013-11-20 05:22:00,29.0,25.0,30.24,SE,146,5.0,10.0,86,0.00,,,0.00,,2013-11-20 11:22:00,
2013-11-20 05:43:00,30.0,26.0,30.24,SE,141,5.0,9.0,85,0.00,,,0.00,,2013-11-20 11:43:00,
2013-11-20 05:52:00,30.0,26.0,30.24,SE,144,4.0,8.0,85,0.00,,,0.00,,2013-11-20 11:52:00,
2013-11-20 06:11:00,30.0,26.0,30.24,SSE,148,4.0,8.0,85,0.00,,,0.00,,2013-11-20 12:11:00,
2013-11-20 06:22:00,30.0,26.0,30.23,ESE,116,6.0,10.0,85,0.00,,,0.00,,2013-11-20 12:22:00,
2013-11-20 06:42:00,30.0,26.0,30.23,SE,134,6.0,12.0,85,0.00,,,0.00,,2013-11-20 12:42:00,
2013-11-20 06:52:00,30.0,26.0,30.22,ESE,123,8.0,16.0,85,0.00,,,0.00,,2013-11-20 12:52:00,
2013-11-20 07:11:00,30.0,26.0,30.22,ESE,103,5.0,11.0,85,0.00,,,0.00,,2013-11-20 13:11:00,
2013-11-20 07:21:00,30.0,26.0,30.21,SE,132,8.0,13.0,84,0.00,,,0.00,,2013-11-20 13:21:00,
2013-11-20 07:42:00,31.0,26.0,30.22,SE,138,6.0,14.0,83,0.00,,,0.00,,2013-11-20 13:42:00,
2013-11-20 07:52:00,32.0,27.0,30.22,SSE,148,7.0,13.0,82,0.00,,,0.00,,2013-11-20 13:52:00,
2013-11-20 08:12:00,32.0,27.0,30.22,SE,133,7.0,14.0,81,0.00,,,0.00,,2013-11-20 14:12:00,
2013-11-20 08:22:00,32.0,27.0,30.22,ESE,111,6.0,13.0,82,0.00,,,0.00,,2013-11-20 14:22:00,
2013-11-20 08:42:00,33.0,28.0,30.23,South,169,7.0,13.0,80,0.00,,,0.00,,2013-11-20 14:42:00,
2013-11-20 08:52:00,33.0,28.0,30.23,SE,134,6.0,12.0,80,0.00,,,0.00,,2013-11-20 14:52:00,
2013-11-20 09:11:00,33.0,28.0,30.23,SE,144,4.0,10.0,81,0.00,,,0.00,,2013-11-20 15:11:00,
2013-11-20 09:21:00,34.0,28.0,30.23,SE,142,6.0,12.0,80,0.00,,,0.00,,2013-11-20 15:21:00,
2013-11-20 09:43:00,35.0,29.0,30.23,SE,138,7.0,12.0,78,0.00,,,0.00,,2013-11-20 15:43:00,
2013-11-20 09:54:00,37.0,30.0,30.24,SSE,156,6.0,12.0,75,0.00,,,0.00,,2013-11-20 15:54:00,
2013-11-20 10:12:00,38.0,30.0,30.23,SSE,168,7.0,13.0,74,0.00,,,0.00,,2013-11-20 16:12:00,
2013-11-20 10:23:00,38.0,30.0,30.23,SE,129,7.0,12.0,74,0.00,,,0.00,,2013-11-20 16:23:00,
2013-11-20 10:34:00,38.0,30.0,30.23,SE,129,7.0,12.0,74,0.00,,,0.00,,2013-11-20 16:34:00,
2013-11-20 10:43:00,38.0,30.0,30.23,SE,129,7.0,12.0,74,0.00,,,0.00,,2013-11-20 16:43:00,
2013-11-20 10:52:00,39.0,31.0,30.22,ESE,116,7.0,13.0,72,0.00,,,0.00,,2013-11-20 16:52:00,
2013-11-20 11:12:00,38.0,31.0,30.21,SE,141,6.0,13.0,75,0.00,,,0.00,,2013-11-20 17:12:00,
2013-11-20 11:22:00,40.0,32.0,30.20,ESE,105,7.0,11.0,73,0.00,,,0.00,,2013-11-20 17:22:00,
2013-11-20 11:33:00,40.0,32.0,30.20,ESE,105,7.0,11.0,73,0.00,,,0.00,,2013-11-20 17:33:00,
2013-11-20 11:42:00,40.0,32.0,30.20,ESE,105,7.0,11.0,73,0.00,,,0.00,,2013-11-20 17:42:00,
2013-11-20 11:52:00,41.0,33.0,30.19,South,173,4.0,11.0,72,0.00,,,0.00,,2013-11-20 17:52:00,
2013-11-20 12:12:00,41.0,32.0,30.18,SE,127,5.0,9.0,71,0.00,,,0.00,,2013-11-20 18:12:00,
2013-11-20 12:21:00,41.0,32.0,30.17,South,180,5.0,11.0,69,0.00,,,0.00,,2013-11-20 18:21:00,
2013-11-20 12:42:00,41.0,32.0,30.17,SSW,198,3.0,8.0,70,0.00,,,0.00,,2013-11-20 18:42:00,
2013-11-20 12:52:00,40.0,32.0,30.16,SE,136,5.0,11.0,72,0.00,,,0.00,,2013-11-20 18:52:00,
2013-11-20 13:21:00,40.0,32.0,30.15,SSW,202,4.0,9.0,73,0.00,,,0.00,,2013-11-20 19:21:00,
2013-11-20 13:42:00,40.0,32.0,30.15,SE,144,4.0,8.0,72,0.00,,,0.00,,2013-11-20 19:42:00,
2013-11-20 13:52:00,41.0,33.0,30.14,SSE,167,4.0,11.0,73,0.00,,,0.00,,2013-11-20 19:52:00,
2013-11-20 14:01:00,41.0,33.0,30.14,SSE,167,4.0,11.0,73,0.00,,,0.00,,2013-11-20 20:01:00,
2013-11-20 14:11:00,41.0,33.0,30.14,SSE,167,4.0,11.0,73,0.00,,,0.00,,2013-11-20 20:11:00,
2013-11-20 14:22:00,41.0,33.0,30.13,SSE,159,3.0,7.0,72,0.00,,,0.00,,2013-11-20 20:22:00,
2013-11-20 14:42:00,41.0,33.0,30.12,SE,139,4.0,7.0,72,0.00,,,0.00,,2013-11-20 20:42:00,
2013-11-20 14:52:00,41.0,33.0,30.12,South,171,4.0,8.0,73,0.00,,,0.00,,2013-11-20 20:52:00,
2013-11-20 15:21:00,41.0,33.0,30.12,South,169,3.0,8.0,73,0.00,,,0.00,,2013-11-20 21:21:00,
2013-11-20 15:43:00,40.0,34.0,30.11,ESE,110,3.0,5.0,78,0.00,,,0.00,,2013-11-20 21:43:00,
2013-11-20 15:53:00,39.0,34.0,30.13,SE,140,3.0,7.0,81,0.01,,,0.01,,2013-11-20 21:53:00,
2013-11-20 16:13:00,39.0,35.0,30.12,SE,144,3.0,6.0,85,0.03,,,0.03,,2013-11-20 22:13:00,
2013-11-20 16:23:00,39.0,35.0,30.12,SE,133,3.0,7.0,86,0.05,,,0.05,,2013-11-20 22:23:00,
2013-11-20 16:42:00,38.0,34.0,30.10,SE,132,4.0,10.0,87,0.07,,,0.07,,2013-11-20 22:42:00,
2013-11-20 16:53:00,38.0,35.0,30.09,ESE,121,7.0,10.0,88,0.09,,,0.10,,2013-11-20 22:53:00,
2013-11-20 17:12:00,38.0,35.0,30.10,SE,146,5.0,10.0,88,0.12,,,0.15,,2013-11-20 23:12:00,
2013-11-20 17:21:00,38.0,35.0,30.09,ESE,115,8.0,12.0,89,0.14,,,0.19,,2013-11-20 23:21:00,
2013-11-20 17:32:00,38.0,35.0,30.09,ESE,115,8.0,12.0,89,0.14,,,0.19,,2013-11-20 23:32:00,
2013-11-20 17:42:00,38.0,35.0,30.09,ESE,115,8.0,12.0,89,0.14,,,0.19,,2013-11-20 23:42:00,
2013-11-20 17:52:00,38.0,35.0,30.09,ESE,122,5.0,11.0,89,0.14,,,0.21,,2013-11-20 23:52:00,
2013-11-20 18:11:00,38.0,35.0,30.07,SSE,156,6.0,11.0,89,0.13,,,0.23,,2013-11-21 00:11:00,
2013-11-20 18:22:00,38.0,35.0,30.06,SE,133,7.0,14.0,88,0.09,,,0.24,,2013-11-21 00:22:00,
2013-11-20 18:42:00,38.0,35.0,30.08,SE,138,8.0,13.0,88,0.04,,,0.24,,2013-11-21 00:42:00,
2013-11-20 18:52:00,38.0,34.0,30.06,ESE,117,7.0,13.0,87,0.03,,,0.24,,2013-11-21 00:52:00,
2013-11-20 19:11:00,38.0,34.0,30.09,SE,140,5.0,10.0,87,0.01,,,0.24,,2013-11-21 01:11:00,
2013-11-20 19:22:00,39.0,35.0,30.12,SW,234,1.0,6.0,87,0.00,,,0.24,,2013-11-21 01:22:00,
2013-11-20 19:42:00,39.0,35.0,30.14,WSW,248,1.0,4.0,86,0.00,,,0.24,,2013-11-21 01:42:00,
2013-11-20 19:52:00,39.0,35.0,30.13,SSE,168,0.0,4.0,85,0.00,,,0.24,,2013-11-21 01:52:00,
2013-11-20 20:11:00,39.0,35.0,30.13,SE,136,0.0,3.0,86,0.00,,,0.24,,2013-11-21 02:11:00,
2013-11-20 20:21:00,39.0,35.0,30.13,SE,125,1.0,3.0,86,0.00,,,0.24,,2013-11-21 02:21:00,
2013-11-20 21:11:00,39.0,36.0,30.12,ENE,71,0.0,3.0,88,0.00,,,0.24,,2013-11-21 03:11:00,
2013-11-20 21:22:00,39.0,36.0,30.12,ESE,111,0.0,3.0,89,0.00,,,0.24,,2013-11-21 03:22:00,
2013-11-20 21:43:00,39.0,36.0,30.13,SE,135,0.0,2.0,89,0.01,,,0.25,,2013-11-21 03:43:00,
2013-11-20 21:54:00,39.0,36.0,30.12,SE,126,0.0,3.0,89,0.01,,,0.25,,2013-11-21 03:54:00,
2013-11-20 22:13:00,39.0,36.0,30.12,SE,126,0.0,2.0,89,0.01,,,0.25,,2013-11-21 04:13:00,
2013-11-20 22:23:00,39.0,36.0,30.12,SE,126,0.0,0.0,90,0.01,,,0.25,,2013-11-21 04:23:00,
2013-11-20 22:53:00,39.0,36.0,30.11,SE,136,1.0,3.0,90,0.00,,,0.25,,2013-11-21 04:53:00,
2013-11-20 23:12:00,40.0,37.0,30.11,SE,139,2.0,5.0,90,0.00,,,0.25,,2013-11-21 05:12:00,
2013-11-20 23:23:00,41.0,38.0,30.11,SSE,151,4.0,8.0,88,0.00,,,0.25,,2013-11-21 05:23:00,
2013-11-20 23:42:00,42.0,38.0,30.10,South,173,4.0,10.0,85,0.00,,,0.25,,2013-11-21 05:42:00,
2013-11-20 23:52:00,42.0,38.0,30.11,SSE,148,4.0,9.0,85,0.00,,,0.25,,2013-11-21 05:52:00,